Погода в Усть-Янске

Россия / Республика Саха (Якутия)     70°54′47″N   136°26′58″E
темп.,
°C
ветер,
м/с
пор.,
м/с
влажн.,
%
обл.,
%
осадки,
мм/ч
давл.,
гПа
погр.,
м
1 марта, пн
пн101:00−38св1110056 0.0 102619
04:00−38ссв0110052 0.0 102519
07:00−38вюв0010065 0.0 102619
10:00−38зюз119971 0.0 102519
13:00−35з009653 0.0 102519
16:00−36юз009635 0.0 102419
19:00−39зюз111009 0.0 102519
22:00−40зюз1110010 0.0 102619
2 марта, вт
вт201:00−40з1110012 0.0 102618
04:00−40зсз119913 0.0 102618
07:00−40зсз119915 0.0 102718
10:00−37сз119538 0.0 102733
13:00−34сз0094100 0.1 1028146
16:00−35с0097100 0.1 102819
19:00−37ююв0010098 0.0 102919
22:00−37юз1110098 0.1 102919
3 марта, ср
ср301:00−38зсз01100100 0.0 102819
04:00−38з00100100 0.0 102819
07:00−39сз1110099 0.0 102819
10:00−38ссз119992 0.0 102719
13:00−35св129798 0.0 102652
16:00−36св229899 0.0 102419
19:00−38св239994 0.0 102519
22:00−38св239895 0.0 102418
4 марта, чт
чт401:00−35ссв2398100 0.1 102377
04:00−33ссз3497100 0.1 1022104
07:00−31ссз3498100 0.1 1022134
10:00−30с3498100 0.1 1021199
13:00−27ссз4696100 0.1 1021343
16:00−26ссз5896100 0.1 1020375
19:00−27ссз6996100 0.1 1021317
22:00−28сз6996100 0.3 1021308
5 марта, пт
пт501:00−31сз61194100 0.0 1021270
04:00−32зсз71195100 0.1 1022273
07:00−31зсз71294100 0.0 1022317
10:00−31зсз81295100 0.0 1022357
13:00−30зсз81294100 0.0 1022383
16:00−29сз81393100 0.0 1023399
19:00−30сз81393100 0.0 1024365
22:00−30сз71293100 0.0 1024359